Orbital Elements
The following orbital elements are taken from MPC 66204:
Epoch 2008 June 23.0 TT = JDT 2454640.5
T 2008 June 5.4817 TT MPC
q 2.498390 (2000.0) P Q
z +0.000508 Peri. 276.5991 -0.1152080 -0.9933362
+/-0.000001 Node 180.1852 +0.4745770 -0.0578890
e 0.998730 Incl. 84.8788 -0.8726419 +0.0996600
From 456 observations 2006 Sept. 15-2009 May 29, mean residual 1".0.
|